ONEWEB-0296, 49085

Orbit data source: Space-Track

ONEWEB-0296, 49085 is a payload satellite owned by One Web (NAA) (UK) in LEO that was launched on Sat, 21 Aug 2021 UTC via a SOYUZ-2-1B launch vehicle from the Tyuratam Missile And Space Complex (TTMTR). Payload-class satellites include a variety of spacecraft equipped with specific instruments for various scientific and technological missions. These include communications satellites like Starlink; space stations such as the ISS; scientific satellites like the Hubble; Earth observation satellites from companies like Planet Labs, Umbra, and HawkEye 360; GPS; miniature CubeSats for education and research; and military/defense satellites.

Loading next visibility...
Identifier
49085, 2021-075L
Orbit
LEO
Country
Flag of UKUK
Related business
Manufacturer
One Web
Mission
Operational Commercial Communications
Bus & Motor
ARROW, Unknown motor
Mass
148 kg wet, ~140 kg dry
Launch date (UTC)
2021-08-21 (5 years ago)
Launch vehicle
SOYUZ-2-1B
Launch site
Tyuratam Missile And Space Complex (TTMTR)
Object type
Payload
Rocket body
Debris
Shape & HBR
Trap Box + 2 Pan, 6.7 m
Radar Cross Section
3.464 m², Large (>1 m²)

Expand to show TLE details & history
Last TLE update: 22 hours ago

TLE from 22 hours ago
0 ONEWEB-0296
1 49085U 21075L   26175.24774330  .00000450  00000-0  12142-2 0  9993
2 49085  87.8955 349.2624 0002151  92.0106 268.1269 13.12441499235504
Epoch: 2026-06-24T05:56Z
TLE epoch observation values (Epoch: 2026-06-24T05:56:45.021Z)
Latitude
0.00001°
Longitude
-12.33288°
Altitude
1,216.674 km
Speed
7.246 km/s
True Right ascension
23h 17m 02s
True Declination
0° 00' 00"
Sunlit
Object was in daylight at epoch
Visualization orbit readout
Latitude
Unknown
Longitude
Unknown
Altitude
Unknown
Speed
Unknown
Apparent Right ascension
Unknown
Apparent Declination
Unknown
Sunlit
N/A
Visualization observer readout
Local Sidereal Time
15:26:57
Azimuth
Unknown
Elevation
Unknown
Doppler factor
Unknown
Orbital elements
Apogee altitude
1,212.478 km
Perigee altitude
1,209.213 km
Semi-major axis
7,588.983 km
Eccentricity
0.00022
Inclination
87.8955°
RAAN
349.2624°
Arg. of periapsis
92.0106°
True anomaly
268.10226°
Mean anomaly
268.1269°
Eccentric anomaly
268.11458°
Mean motion
3.28298 °/min
Orbital period
109.66 mins
BSTAR
0.0012142
Loading maneuver chart data...
Computing Atmospheric mass density...
Loading historical data...
Loading historical data...
Loading historical data...
Loading historical data...
Loading historical data...
Loading historical data...
Loading historical data...

Documentation

Showing up to 5 results
|